Weather History for KLHQ - February, 2013

Change the Weather History Date:

Monday, February 4, 2013

  Actual Average (KCMH) Record (KCMH)
Temperature  
Mean Temperature 20 °F 31 °F  
Max Temperature 30 °F 38 °F 66 °F (1890)
Min Temperature 10 °F 23 °F -9 °F (1985)
Degree Days  
Heating Degree Days 45 34  
Month to date heating degree days 139  
Since 1 July heating degree days 3231  
Cooling Degree Days 0 0  
Month to date cooling degree days 0  
Year to date cooling degree days 0  
Moisture  
Dew Point 21 °F    
Average Humidity 83    
Maximum Humidity 93    
Minimum Humidity 56    
Precipitation  
Precipitation 0.10 in 0.08 in 0.90 in (1997)
Month to date precipitation 0.33  
Year to date precipitation 3.06  
Snow  
Snow 0.00 in 0.20 in 7.10 in (2014)
Month to date snowfall 1.0  
Since 1 July snowfall 16.3  
Snow Depth -    
Sea Level Pressure  
Sea Level Pressure 29.94 in    
Wind  
Wind Speed 4 mph (South)    
Max Wind Speed 9 mph    
Max Gust Speed -    
Visibility 4 miles    
Events Fog , Snow    
T = Trace of Precipitation, MM = Missing Value Source: NWS Daily Summary

Daily Weather History Graph

Daily Weather History Graph

Search for Another Location

Airport or City:

Trip Planner

Search our weather history database for the weather conditions in past years. The results will help you decide how hot, cold, wet, or windy it might be!

Date:

Astronomy

Feb. 04, 2013 Rise Set
Actual Time 7:35 AM EST 5:54 PM EST
Civil Twilight 7:07 AM EST 6:22 PM EST
Nautical Twilight 6:35 AM EST 6:54 PM EST
Astronomical Twilight 6:03 AM EST 7:26 PM EST
Moon 2:09 AM EST (2/4) 12:17 PM EST (2/4)
Length of Visible Light 11h 15m
Length of Day
10h 18m
Last Quarter, 37% of the Moon is Illuminated
Feb 4
Last Quarter
Feb 10
New
Feb 17
First Quarter
Feb 25
Full
Mar 4
Last Quarter

Hourly Weather History & Observations

Time (EST) Temp. Windchill Dew Point Humidity Pressure Visibility Wind Dir Wind Speed Gust Speed Precip Events Conditions
12:23 AM 19.4 °F 8.6 °F 10.4 °F 68% 30.09 in 10.0 mi West 9.2 mph - N/A   Mostly Cloudy
12:49 AM 19.4 °F 11.5 °F 10.4 °F 68% 30.09 in 10.0 mi West 5.8 mph - N/A   Mostly Cloudy
12:53 AM 19.0 °F 12.3 °F 10.0 °F 68% 30.13 in 10.0 mi West 4.6 mph - N/A   Mostly Cloudy
1:53 AM 18.0 °F 12.7 °F 10.9 °F 74% 30.13 in 8.0 mi WSW 3.5 mph - N/A   Overcast
2:53 AM 14.0 °F - 10.0 °F 84% 30.13 in 7.0 mi Calm Calm - N/A   Clear
3:53 AM 10.9 °F 4.7 °F 8.1 °F 88% 30.13 in 6.0 mi SW 3.5 mph - N/A   Mostly Cloudy
5:53 AM 15.1 °F 6.4 °F 10.9 °F 84% 30.11 in 7.0 mi SW 5.8 mph - N/A   Clear
6:53 AM 15.1 °F 7.7 °F 10.0 °F 80% 30.11 in 7.0 mi SW 4.6 mph - N/A   Scattered Clouds
7:53 AM 16.0 °F 10.4 °F 12.0 °F 84% 30.09 in 5.0 mi South 3.5 mph - N/A   Overcast
8:53 AM 19.0 °F 11.1 °F 14.0 °F 81% 30.07 in 6.0 mi SE 5.8 mph - N/A   Haze
9:53 AM 23.0 °F 18.4 °F 15.1 °F 72% 30.04 in 8.0 mi SSE 3.5 mph - N/A   Overcast
10:53 AM 25.0 °F 17.1 °F 14.0 °F 63% 30.02 in 10.0 mi South 6.9 mph - N/A   Overcast
11:53 AM 27.0 °F 19.5 °F 15.1 °F 61% 30.00 in 10.0 mi SSW 6.9 mph - N/A   Overcast
12:53 PM 28.0 °F 19.3 °F 14.0 °F 56% 29.96 in 10.0 mi South 9.2 mph - N/A   Overcast
1:42 PM 28.4 °F 21.2 °F 17.6 °F 64% 29.91 in 2.0 mi South 6.9 mph - 0.00 in Snow Light Snow
1:50 PM 28.4 °F 22.2 °F 17.6 °F 64% 29.91 in 1.2 mi SSE 5.8 mph - 0.00 in Snow Light Snow
1:53 PM 28.0 °F 21.7 °F 19.0 °F 69% 29.94 in 1.2 mi South 5.8 mph - 0.00 in Snow Light Snow
1:59 PM 26.6 °F 19.1 °F 19.4 °F 74% 29.89 in 0.8 mi SSE 6.9 mph - 0.00 in Snow Light Snow
2:53 PM 27.0 °F 21.6 °F 23.0 °F 85% 29.90 in 0.5 mi SSE 4.6 mph - 0.01 in Fog , Snow Snow
3:53 PM 28.0 °F 24.2 °F 24.1 °F 85% 29.90 in 0.5 mi South 3.5 mph - 0.02 in Fog , Snow Snow
4:04 PM 28.4 °F 24.6 °F 24.8 °F 86% 29.86 in 0.5 mi SSE 3.5 mph - 0.01 in Fog , Snow Snow
4:25 PM 28.4 °F 24.6 °F 24.8 °F 86% 29.86 in 0.2 mi South 3.5 mph - 0.02 in Fog , Snow Snow
4:45 PM 28.4 °F 24.6 °F 26.6 °F 93% 29.86 in 0.2 mi South 3.5 mph - 0.04 in Fog , Snow Snow
4:50 PM 28.4 °F - 26.6 °F 93% 29.86 in 0.2 mi Calm Calm - 0.05 in Fog , Snow Snow
4:53 PM 28.0 °F 24.2 °F 26.1 °F 92% 29.89 in 0.2 mi South 3.5 mph - 0.05 in Fog , Snow Snow
5:19 PM 28.4 °F 23.3 °F 24.8 °F 86% 29.85 in 0.8 mi SSE 4.6 mph - 0.01 in Snow Light Snow
5:28 PM 28.4 °F 24.6 °F 24.8 °F 86% 29.85 in 1.0 mi SE 3.5 mph - 0.01 in Snow Light Snow
5:33 PM 28.4 °F 23.3 °F 24.8 °F 86% 29.85 in 1.2 mi SE 4.6 mph - 0.01 in Snow Light Snow
5:42 PM 28.4 °F - 24.8 °F 86% 29.85 in 1.0 mi Calm Calm - 0.01 in Snow Light Snow
5:53 PM 28.0 °F - 25.0 °F 88% 29.89 in 1.0 mi Calm Calm - 0.01 in Snow Light Snow
6:07 PM 28.4 °F - 24.8 °F 86% 29.86 in 1.8 mi Calm Calm - 0.00 in Snow Light Snow
6:11 PM 28.4 °F - 24.8 °F 86% 29.86 in 2.5 mi Calm Calm - 0.00 in Snow Light Snow
6:20 PM 28.4 °F - 24.8 °F 86% 29.86 in 3.0 mi Calm Calm - 0.00 in Snow Light Snow
6:29 PM 28.4 °F - 24.8 °F 86% 29.86 in 2.5 mi Calm Calm - 0.00 in Snow Light Snow
6:36 PM 28.4 °F - 26.6 °F 93% 29.86 in 4.0 mi Calm Calm - 0.00 in Snow Light Snow
6:53 PM 28.0 °F - 25.0 °F 88% 29.90 in 5.0 mi Calm Calm - 0.00 in   Overcast
7:43 PM 28.4 °F 23.3 °F 26.6 °F 93% 29.86 in 3.0 mi South 4.6 mph - N/A   Overcast
7:53 PM 28.0 °F 22.8 °F 26.1 °F 92% 29.89 in 3.0 mi SSE 4.6 mph - N/A   Overcast
8:51 PM 30.2 °F 25.4 °F 28.4 °F 93% 29.84 in 4.0 mi South 4.6 mph - N/A   Overcast
8:53 PM 30.0 °F 25.2 °F 28.0 °F 92% 29.87 in 4.0 mi South 4.6 mph - N/A   Overcast
9:53 PM 30.9 °F - 28.0 °F 89% 29.89 in 5.0 mi Calm Calm - N/A   Overcast
10:19 PM 30.2 °F - 28.4 °F 93% 29.86 in 5.0 mi Calm Calm - N/A   Overcast
10:53 PM 30.9 °F - 28.9 °F 92% 29.89 in 5.0 mi Calm Calm - 0.01 in   Overcast
11:10 PM 30.2 °F - 28.4 °F 93% 29.86 in 5.0 mi Calm Calm - N/A   Overcast
11:24 PM 30.2 °F - 28.4 °F 93% 29.86 in 4.0 mi Calm Calm - N/A   Overcast
11:53 PM 30.9 °F - 28.9 °F 92% 29.88 in 3.0 mi Calm Calm - N/A   Overcast